Torna al catalogo

STARLINK-36218

AttivoComunicazioniVLEO
NORAD 69968·PAYLOAD·🇺🇸 United States

Lanciato Jul 9, 2026 da Cape Canaveral Space Force Station

Loading…

Prossimi Passaggi (prossime 24 ore)

TLE

AggiornatoSource: CelesTrak SupGP

Epoca: Sep 14, 2026, 23:14 UTC

1 69968C 26157AB  26257.96854167 -.00003987  00000+0 -11780-3 0  2572
2 69968  53.1602 359.4053 0001189  72.3483  10.1955 15.34389675    15

Traccia STARLINK-36218 in tempo reale con AllMySat

Download on the App Store